TimeMDT,TemperatureF,Dew PointF,Humidity,Sea Level PressureIn,VisibilityMPH,Wind Direction,Wind SpeedMPH,Gust SpeedMPH,PrecipitationIn,Events,Conditions,WindDirDegrees,DateUTC
12:15 AM,68.0,35.6,30,29.85,10.0,ESE,11.5,-,N/A,,Clear,110,2013-05-14 06:15:00
12:35 AM,68.0,35.6,30,29.84,10.0,ESE,9.2,-,N/A,,Clear,120,2013-05-14 06:35:00
12:55 AM,66.2,35.6,32,29.83,10.0,ESE,6.9,-,N/A,,Clear,110,2013-05-14 06:55:00
1:15 AM,66.2,33.8,30,29.83,10.0,ESE,8.1,-,N/A,,Clear,120,2013-05-14 07:15:00
1:35 AM,66.2,33.8,30,29.83,10.0,Calm,Calm,-,N/A,,Clear,0,2013-05-14 07:35:00
1:55 AM,66.2,33.8,30,29.83,10.0,SSE,3.5,-,N/A,,Clear,150,2013-05-14 07:55:00
2:15 AM,60.8,35.6,39,29.82,10.0,Calm,Calm,-,N/A,,Clear,0,2013-05-14 08:15:00
2:35 AM,60.8,35.6,39,29.83,10.0,NNE,3.5,-,N/A,,Clear,30,2013-05-14 08:35:00
2:55 AM,59.0,35.6,42,29.82,10.0,North,-9999.0,-,N/A,,Clear,0,2013-05-14 08:55:00
3:15 AM,59.0,35.6,42,29.82,10.0,North,-9999.0,-,N/A,,Clear,0,2013-05-14 09:15:00
3:35 AM,55.4,35.6,47,29.83,10.0,Calm,Calm,-,N/A,,Clear,0,2013-05-14 09:35:00
3:55 AM,55.4,35.6,47,29.84,10.0,Calm,Calm,-,N/A,,Clear,0,2013-05-14 09:55:00
4:15 AM,55.4,35.6,47,29.84,10.0,East,5.8,-,N/A,,Clear,100,2013-05-14 10:15:00
4:35 AM,57.2,35.6,44,29.84,10.0,SSE,8.1,-,N/A,,Clear,150,2013-05-14 10:35:00
4:55 AM,53.6,35.6,51,29.84,10.0,East,4.6,-,N/A,,Clear,90,2013-05-14 10:55:00
5:15 AM,55.4,35.6,47,29.87,10.0,NNW,12.7,-,N/A,,Clear,340,2013-05-14 11:15:00
5:35 AM,55.4,35.6,47,29.87,10.0,North,8.1,-,N/A,,Clear,350,2013-05-14 11:35:00
5:55 AM,57.2,33.8,41,29.87,10.0,North,6.9,-,N/A,,Clear,350,2013-05-14 11:55:00
6:15 AM,55.4,35.6,47,29.87,10.0,NW,6.9,-,N/A,,Clear,310,2013-05-14 12:15:00
6:35 AM,59.0,33.8,39,29.88,10.0,NW,10.4,-,N/A,,Clear,310,2013-05-14 12:35:00
6:55 AM,62.6,37.4,39,29.89,10.0,NW,9.2,-,N/A,,Clear,310,2013-05-14 12:55:00
7:15 AM,64.4,39.2,40,29.90,10.0,North,13.8,-,N/A,,Clear,10,2013-05-14 13:15:00
7:35 AM,68.0,41.0,37,29.91,10.0,NNW,8.1,-,N/A,,Clear,340,2013-05-14 13:35:00
7:55 AM,69.8,39.2,33,29.91,10.0,NNW,9.2,17.3,N/A,,Clear,330,2013-05-14 13:55:00
8:15 AM,69.8,39.2,33,29.92,10.0,North,10.4,-,N/A,,Clear,360,2013-05-14 14:15:00
8:35 AM,69.8,39.2,33,29.92,10.0,North,4.6,-,N/A,,Clear,350,2013-05-14 14:35:00
8:55 AM,71.6,41.0,33,29.92,10.0,NW,6.9,-,N/A,,Clear,310,2013-05-14 14:55:00
9:15 AM,71.6,41.0,33,29.92,10.0,NW,12.7,18.4,N/A,,Clear,310,2013-05-14 15:15:00
9:35 AM,71.6,39.2,31,29.93,10.0,NW,11.5,-,N/A,,Clear,320,2013-05-14 15:35:00
9:55 AM,73.4,39.2,29,29.92,10.0,NW,12.7,-,N/A,,Clear,310,2013-05-14 15:55:00
10:15 AM,73.4,41.0,31,29.92,10.0,WNW,13.8,-,N/A,,Clear,300,2013-05-14 16:15:00
10:35 AM,75.2,39.2,27,29.92,10.0,NW,9.2,17.3,N/A,,Clear,320,2013-05-14 16:35:00
10:55 AM,77.0,37.4,24,29.93,10.0,NW,9.2,-,N/A,,Clear,320,2013-05-14 16:55:00
11:15 AM,77.0,37.4,24,29.93,10.0,WNW,9.2,-,N/A,,Clear,290,2013-05-14 17:15:00
11:35 AM,77.0,37.4,24,29.94,10.0,West,10.4,-,N/A,,Clear,280,2013-05-14 17:35:00
11:55 AM,77.0,37.4,24,29.93,10.0,WNW,11.5,18.4,N/A,,Clear,300,2013-05-14 17:55:00
12:15 PM,77.0,37.4,24,29.93,10.0,North,-9999.0,-,N/A,,Clear,0,2013-05-14 18:15:00
12:35 PM,78.8,37.4,23,29.92,10.0,WNW,15.0,19.6,N/A,,Clear,290,2013-05-14 18:35:00
12:55 PM,77.0,37.4,24,29.92,10.0,West,10.4,19.6,N/A,,Clear,260,2013-05-14 18:55:00
1:15 PM,78.8,39.2,24,29.92,10.0,North,-9999.0,-,N/A,,Clear,0,2013-05-14 19:15:00
1:35 PM,78.8,39.2,24,29.91,10.0,West,12.7,17.3,N/A,,Clear,280,2013-05-14 19:35:00
1:55 PM,78.8,37.4,23,29.91,10.0,West,10.4,17.3,N/A,,Clear,260,2013-05-14 19:55:00
2:15 PM,78.8,37.4,23,29.91,10.0,West,15.0,19.6,N/A,,Clear,280,2013-05-14 20:15:00
2:35 PM,78.8,37.4,23,29.91,10.0,West,10.4,-,N/A,,Clear,270,2013-05-14 20:35:00
2:55 PM,78.8,37.4,23,29.91,10.0,WNW,11.5,16.1,N/A,,Clear,300,2013-05-14 20:55:00
3:15 PM,78.8,37.4,23,29.90,10.0,West,6.9,-,N/A,,Clear,270,2013-05-14 21:15:00
3:35 PM,80.6,37.4,21,29.88,10.0,WNW,4.6,-,N/A,,Clear,290,2013-05-14 21:35:00
3:55 PM,80.6,37.4,21,29.87,10.0,WNW,5.8,-,N/A,,Clear,290,2013-05-14 21:55:00
4:15 PM,80.6,35.6,20,29.86,10.0,NE,3.5,-,N/A,,Clear,50,2013-05-14 22:15:00
4:35 PM,80.6,35.6,20,29.85,10.0,WSW,4.6,-,N/A,,Clear,250,2013-05-14 22:35:00
4:55 PM,80.6,35.6,20,29.84,10.0,NW,3.5,-,N/A,,Clear,310,2013-05-14 22:55:00
5:15 PM,80.6,33.8,18,29.83,10.0,Calm,Calm,-,N/A,,Clear,0,2013-05-14 23:15:00
5:35 PM,80.6,35.6,20,29.83,10.0,West,6.9,-,N/A,,Clear,270,2013-05-14 23:35:00
5:55 PM,80.6,33.8,18,29.83,10.0,West,5.8,-,N/A,,Clear,270,2013-05-14 23:55:00
6:15 PM,80.6,35.6,20,29.82,10.0,Calm,Calm,-,N/A,,Clear,0,2013-05-15 00:15:00
6:35 PM,78.8,42.8,28,29.83,10.0,ESE,19.6,24.2,N/A,,Clear,120,2013-05-15 00:35:00
6:55 PM,77.0,42.8,29,29.83,10.0,North,-9999.0,-,N/A,,Clear,0,2013-05-15 00:55:00
7:15 PM,73.4,42.8,33,29.83,10.0,North,-9999.0,-,N/A,,Clear,0,2013-05-15 01:15:00
7:35 PM,73.4,41.0,31,29.82,10.0,East,16.1,-,N/A,,Clear,90,2013-05-15 01:35:00
7:55 PM,71.6,39.2,31,29.83,10.0,East,11.5,17.3,N/A,,Clear,100,2013-05-15 01:55:00
8:15 PM,69.8,37.4,31,29.83,10.0,East,12.7,-,N/A,,Clear,80,2013-05-15 02:15:00
8:35 PM,69.8,35.6,28,29.84,10.0,ENE,15.0,20.7,N/A,,Clear,70,2013-05-15 02:35:00
8:55 PM,68.0,35.6,30,29.85,10.0,East,16.1,-,N/A,,Clear,80,2013-05-15 02:55:00
9:15 PM,66.2,35.6,32,29.87,10.0,East,9.2,17.3,N/A,,Clear,80,2013-05-15 03:15:00
9:35 PM,66.2,35.6,32,29.87,10.0,North,-9999.0,-,N/A,,Clear,0,2013-05-15 03:35:00
9:55 PM,66.2,33.8,30,29.87,10.0,North,-9999.0,-,N/A,,Clear,0,2013-05-15 03:55:00
10:35 PM,64.4,33.8,32,29.89,10.0,North,-9999.0,-,N/A,,Clear,0,2013-05-15 04:35:00
10:55 PM,64.4,33.8,32,29.89,10.0,North,-9999.0,-,N/A,,Clear,0,2013-05-15 04:55:00
11:15 PM,64.4,33.8,32,29.90,10.0,SSE,3.5,-,N/A,,Clear,150,2013-05-15 05:15:00
11:35 PM,60.8,33.8,36,29.90,10.0,North,-9999.0,-,N/A,,Clear,0,2013-05-15 05:35:00
11:55 PM,59.0,33.8,39,29.91,10.0,Calm,Calm,-,N/A,,Clear,0,2013-05-15 05:55:00